This demonstration page uses our WeatherBlox Daily Observations layout. Learn more.

Left ArrowRight Arrow

39.29038, -76.61219

Hourly Observations for February 6, 2021

Temp ( °F °C ) Dew Point ( °F °C ) Humidity (%) Winds ( mph kmh ) Pressure ( in mb ) Visibility ( mi km ) Precip ( " mm )
12:54 am 00:54 Partly Cloudy 35 1.7 18 -7.8 50 50 N N/A 29.87 1012 10 16 N/A
1:54 am 01:54 Mostly Clear 33 0.6 18 -7.8 54 54 SSW 5 7 29.89 1012 10 16 N/A
2:54 am 02:54 Mostly Clear 28 -2.2 18 -7.8 66 66 SW 3 6 29.91 1013 10 16 N/A
3:54 am 03:54 Partly Cloudy 32 undefined 18 -7.8 56 56 SW 3 6 29.93 1014 10 16 N/A
4:54 am 04:54 Mostly Cloudy 31 -0.6 18 -7.8 59 59 N N/A 29.96 1015 10 16 N/A
5:54 am 05:54 Mostly Cloudy 34 1.1 19 -7.2 54 54 WSW 5 7 29.96 1015 10 16 N/A
6:54 am 06:54 Mostly Cloudy 35 1.7 19 -7.2 52 52 SSW 3 6 29.98 1015 10 16 N/A
7:54 am 07:54 Partly Cloudy 36 2.2 19 -7.2 50 50 SSW 5 7 30.01 1016 10 16 N/A
8:54 am 08:54 Mostly Cloudy 39 3.9 20 -6.7 46 46 SW 6 9 30.04 1017 10 16 N/A
9:54 am 09:54 Mostly Cloudy 43 6.1 21 -6.1 42 42 SW 9 15 30.06 1018 10 16 N/A
10:54 am 10:54 Mostly Cloudy 47 8.3 21 -6.1 36 36 SW 9 15 30.08 1019 10 16 N/A
11:54 am 11:54 Mostly Cloudy 47 8.3 22 -5.6 37 37 W 14 22 30.08 1019 10 16 N/A
12:54 pm 12:54 Mostly Cloudy 48 8.9 22 -5.6 36 36 WSW 15 24 30.07 1018 10 16 N/A
1:54 pm 13:54 Mostly Cloudy 48 8.9 23 -5 37 37 W 17 28 30.07 1018 10 16 N/A
2:54 pm 14:54 Mostly Cloudy 48 8.9 23 -5 37 37 WSW 9 15 30.09 1019 10 16 N/A
3:54 pm 15:54 Mostly Cloudy 48 8.9 21 -6.1 34 34 WSW 13 20 30.09 1019 10 16 N/A
4:54 pm 16:54 Mostly Cloudy 46 7.8 22 -5.6 38 38 W 5 7 30.12 1020 10 16 N/A
5:54 pm 17:54 Mostly Cloudy 45 7.2 20 -6.7 37 37 N N/A 30.11 1020 10 16 N/A
6:54 pm 18:54 Cloudy 43 6.1 21 -6.1 42 42 N N/A 30.14 1021 10 16 N/A
7:54 pm 19:54 Cloudy 40 4.4 23 -5 51 51 N N/A 30.13 1020 10 16 N/A
8:54 pm 20:54 Cloudy 41 5 23 -5 49 49 E 3 6 30.13 1020 10 16 N/A
9:54 pm 21:54 Cloudy 41 5 24 -4.4 51 51 E 5 7 30.11 1020 10 16 N/A
10:54 pm 22:54 Cloudy 39 3.9 25 -3.9 57 57 E 5 7 30.09 1019 10 16 N/A
11:54 pm 23:54 Cloudy 40 4.4 25 -3.9 55 55 E 3 6 30.07 1018 10 16 N/A

Powered by AerisWeather